Weather History for Gulkana, AK

Change the Weather History Date:

Wednesday, July 17, 2013

  Actual Average Record
Temperature  
Mean Temperature 65 °F -  
Max Temperature 75 °F 69 °F 85 °F (1993)
Min Temperature 55 °F 46 °F -5 °F (1999)
Growing Degree Days 15 (Base 50)    
Moisture  
Dew Point 50 °F    
Average Humidity 60    
Maximum Humidity 80    
Minimum Humidity 34    
Precipitation  
Precipitation 0.00 in - - ()
Sea Level Pressure  
Sea Level Pressure 30.01 in    
Wind  
Wind Speed 4 mph (WSW)    
Max Wind Speed 8 mph    
Max Gust Speed -    
Visibility 10 miles    
Events Rain    
Averages and records for this station are not official NWS values.
T = Trace of Precipitation, MM = Missing Value Source: NWS Daily Summary

Daily Weather History Graph

Daily Weather History Graph

Search for Another Location

Airport:

Trip Planner

Search our weather history database for the weather conditions in past years. The results will help you decide how hot, cold, wet, or windy it might be!

Date:

Astronomy

Jul. 17, 2013 Rise Set
Actual Time 4:28 AM AKDT 11:05 PM AKDT
Civil Twilight 2:42 AM AKDT 12:47 AM AKDT
Nautical Twilight Sun does not rise Sun does not rise
Astronomical Twilight Sun does not rise Sun does not rise
Moon 5:36 PM AKDT (7/17) 12:26 AM AKDT (7/17)
Length of Visible Light 22h 04m
Length of Day
18h 37m
Waxing Gibbous, 68% of the Moon is Illuminated
Jul 17
Waxing Gibbous
Jul 22
Full
Jul 29
Last Quarter
Aug 6
New
Aug 14
First Quarter

Hourly Weather History & Observations

Time (AKDT) Temp. Dew Point Humidity Pressure Visibility Wind Dir Wind Speed Gust Speed Precip Events Conditions
12:53 AM 60.1 °F 50.0 °F 69% 30.00 in 10.0 mi WSW 3.5 mph - N/A   Scattered Clouds
1:53 AM 60.1 °F 48.9 °F 67% 30.00 in 10.0 mi West 3.5 mph - N/A   Clear
2:53 AM 57.0 °F 48.9 °F 74% 30.01 in 10.0 mi WSW 3.5 mph - N/A   Scattered Clouds
3:53 AM 57.0 °F 48.9 °F 74% 30.01 in 10.0 mi SSW 3.5 mph - N/A   Mostly Cloudy
4:53 AM 55.9 °F 48.9 °F 77% 30.01 in 10.0 mi South 4.6 mph - N/A   Scattered Clouds
5:53 AM 55.9 °F 48.9 °F 77% 30.02 in 10.0 mi SSE 5.8 mph - N/A   Mostly Cloudy
6:02 AM 55.9 °F 48.9 °F 77% 30.04 in 10.0 mi South 5.8 mph - N/A   Overcast
6:53 AM 55.9 °F 48.9 °F 77% 30.02 in 10.0 mi SSE 5.8 mph - N/A   Overcast
7:53 AM 55.9 °F 50.0 °F 80% 30.03 in 10.0 mi SSE 3.5 mph - N/A   Overcast
8:53 AM 57.0 °F 50.0 °F 77% 30.03 in 10.0 mi SE 3.5 mph - N/A   Overcast
9:53 AM 62.1 °F 51.1 °F 67% 30.02 in 10.0 mi ESE 4.6 mph - N/A   Overcast
10:53 AM 66.0 °F 52.0 °F 60% 30.02 in 10.0 mi West 4.6 mph - N/A   Overcast
11:53 AM 68.0 °F 52.0 °F 56% 30.02 in 10.0 mi Variable 4.6 mph - N/A   Overcast
12:53 PM 68.0 °F 51.1 °F 55% 30.02 in 10.0 mi NW 5.8 mph - N/A   Overcast
1:53 PM 72.0 °F 50.0 °F 46% 30.01 in 10.0 mi Calm Calm - N/A   Mostly Cloudy
2:53 PM 73.0 °F 48.0 °F 41% 30.00 in 10.0 mi Variable 5.8 mph - N/A   Mostly Cloudy
3:53 PM 71.1 °F 48.9 °F 45% 29.99 in 10.0 mi Variable 3.5 mph - N/A   Mostly Cloudy
4:53 PM 71.1 °F 48.0 °F 44% 29.98 in 10.0 mi West 8.1 mph - N/A   Mostly Cloudy
5:53 PM 71.1 °F 48.9 °F 45% 29.98 in 10.0 mi Variable 5.8 mph - N/A   Mostly Cloudy
6:53 PM 71.1 °F 48.9 °F 45% 29.99 in 10.0 mi WNW 8.1 mph - 0.00 in   Mostly Cloudy
7:53 PM 69.1 °F 50.0 °F 51% 30.00 in 10.0 mi NNW 4.6 mph - N/A   Mostly Cloudy
8:53 PM 66.9 °F 48.9 °F 52% 30.02 in 10.0 mi NNW 4.6 mph - 0.00 in Rain Light Rain
9:25 PM 66.0 °F 48.9 °F 54% 30.03 in 10.0 mi NNW 4.6 mph - 0.00 in   Overcast
9:53 PM 64.9 °F 50.0 °F 58% 30.03 in 10.0 mi NW 3.5 mph - 0.00 in   Overcast
10:53 PM 62.1 °F 51.1 °F 67% 30.04 in 10.0 mi NW 3.5 mph - 0.00 in   Overcast
11:53 PM 60.1 °F 51.1 °F 72% 30.06 in 10.0 mi NNW 3.5 mph - N/A   Overcast